Terminal Aerodrome Forecast
Issued by NWS

Home | Current Version | Previous Version | Text Only | Print | Product List | Glossary Off
Versions: 1 2 3 4 5 6 7 8 9 10 11 12 13 14 15 16 17 18 19 20 21 22

000
FTUS41 KCLE 151900 AAA
TAFFDY
TAF AMD
KFDY 152000Z 1520/1618 16006KT P6SM BKN200
     FM160300 14007KT 4SM -RA BR SCT012 OVC030
     FM160700 17008KT 2SM -RA OVC008
     FM161500 23011KT 3SM -RA BR OVC008=

USA.gov is the U.S. government's official web portal to all federal, state and local government web resources and services.